Hourly Data Report for September 03, 2017

All times are specified in Local Standard Time (LST). Add 1 hour to adjust for Daylight Saving Time where and when it is observed.

SATURNA ISLAND CS
BRITISH COLUMBIA

48°47'02.067" N
123°02'41.082" W
24.40 m
1017101
71473
WEZ

Download Data

Hourly Data (September 2017)
Hourly Data Report for September 3, 2017
Temp Definition
°C
Dew Point Temp Definition
°C
Rel Hum Definition
%
Wind Dir Definition
10's deg

Wind Spd Definition
km/h
Visibility Definition
km
Stn Press Definition
kPa
Hmdx Definition


Wind Chill Definition


Weather Definition


TIME
00:00 17.3 13.8 80 31 5   101.18     LegendNANA
01:00 18.2 15.3 83 1 3   101.20     LegendNANA
02:00 17.9 14.6 81 30 6   101.23     LegendNANA
03:00 18.3 15.8 85 29 6   101.25     LegendNANA
04:00 18.1 15.8 87 30 4   101.24     LegendNANA
05:00 18.4 15.3 82 32 3   101.25     LegendNANA
06:00 18.4 15.0 81 32 3   101.30     LegendNANA
07:00 20.6 15.9 74 27 3   101.35 25   LegendNANA
08:00 21.7 16.0 70 27 4   101.37 26   LegendNANA
09:00 22.5 16.1 67 28 6   101.41 27   LegendNANA
10:00 23.4 16.2 64 28 6   101.44 28   LegendNANA
11:00 23.8 16.1 62 28 6   101.46 28   LegendNANA
12:00 24.4 16.2 60 29 5   101.44 29   LegendNANA
13:00 24.3 15.8 59 29 6   101.45 29   LegendNANA
14:00 24.8 15.6 56 30 4   101.40 29   LegendNANA
15:00 22.8 15.9 65 31 11   101.37 27   LegendNANA
16:00 24.3 15.2 57 31 4   101.35 28   LegendNANA
17:00 22.6 15.6 65 29 4   101.32 27   LegendNANA
18:00 22.5 15.5 65 31 8   101.30 27   LegendNANA
19:00 22.9 14.8 60 30 3   101.31 27   LegendNANA
20:00 20.0 14.6 71 22 13   101.34     LegendNANA
21:00 21.1 15.2 69 22 15   101.34 25   LegendNANA
22:00 19.5 13.6 69 21 14   101.38     LegendNANA
23:00 21.1 15.4 70 23 11   101.41 25   LegendNANA

Notes on Data Quality.

Legend

  • E = Estimated
  • M = Missing
  • NA = Not Available
  • ‡ = Partner data that is not subject to review by the National Climate Archives
Date modified: